Volver al catálogo

CZ-6A DEB

ActivoPO
NORAD 61436·DEBRIS·🇨🇳 China

Lanzado Aug 6, 2024 desde Taiyuan Satellite Launch Center

Loading…

Próximos Pases (próximas 24 horas)

TLE

ActualizadoSource: Space-Track

Época: Sep 14, 2026, 06:30 UTC

1 61436U 24140ZD  26257.27119977  .00000661  00000-0  30533-3 0  9996
2 61436  88.9352 259.3938 0054444 252.2280 107.2964 14.19085592106783

Sigue CZ-6A DEB en tiempo real con AllMySat

Download on the App Store